Flag for Comoros Weather past 2 weeks in Mutsamudu, Comoros

Now
81 °F

Scattered clouds.


Feels Like: 84 °F
Forecast: 67 / 76 °F
Wind: 12 mph from South

Location: Dzaoudzi / Pamanzi Mayotte

Current Time: Jul 25, 2014 at 8:25:13 AM

Latest Report: Jul 25, 2014 at 8:00 AM


Visibility: N/A

Pressure: 30.04 "Hg

Humidity: 70%

Dew point: 70 °F

Location of MutsamuduLocation

Historic Weather in Mutsamudu — Graph

°F

Mutsamudu temperature yesterday

Maximum temperature yesterday: 82 °F (at 11:00 AM)
Minimum temperature yesterday: 75 °F (at 12:00 AM)
Average temperature yesterday: 78 °F

Past Weeks' High & Low Weather Summary

 TemperatureHumidityPressure
High84 °F (Jul 19, 12:30 PM)94% (Jul 20, 1:00 AM)30.15 "Hg (Jul 20, 1:00 AM)
Low72 °F (Jul 12, 1:00 AM)51% (Jul 10, 3:30 PM)29.98 "Hg (Jul 15, 4:00 AM)
Average78 °F72%30.05 "Hg
* Reported Jul 10 7:00 AM — Jul 25 7:30 AM, Mutsamudu, Weather by CustomWeather, © 2014

Note: Actual official high and low records may vary slightly from our data, if they occured in-between our weather recording intervals... More about our weather records

Advertising

Mutsamudu weather history for previous 24 hours

 ConditionsComfort  
Time TempWeatherWind HumidityBarometerVisibility
7:30 AM
Jul 25
79 °FScattered clouds.13 mph70%30.04 "HgN/A
7:00 AM77 °FScattered clouds.12 mph74%30.04 "HgN/A
6:30 AM77 °FScattered clouds.14 mph74%30.01 "HgN/A
6:00 AM77 °FPassing clouds.13 mph74%30.01 "HgN/A
5:30 AM77 °FPassing clouds.13 mph74%30.01 "HgN/A
5:00 AM77 °FPassing clouds.14 mph74%30.01 "HgN/A
4:30 AM77 °FPartly cloudy.13 mph74%30.01 "HgN/A
4:00 AM75 °FPassing clouds.13 mph78%30.01 "HgN/A
3:30 AM75 °FPassing clouds.12 mph78%29.98 "HgN/A
3:00 AM75 °FPassing clouds.12 mph78%30.01 "HgN/A
2:30 AM75 °FPassing clouds.10 mph78%30.01 "HgN/A
2:00 AM75 °FPassing clouds.10 mph78%30.01 "HgN/A
1:30 AM75 °FPassing clouds.9 mph78%30.01 "HgN/A
1:00 AM75 °FPassing clouds.9 mph78%30.04 "HgN/A
12:30 AM75 °FPassing clouds.10 mph78%30.04 "HgN/A
12:00 AM75 °FPassing clouds.10 mph78%30.04 "HgN/A
11:30 PM
Jul 24
75 °FPassing clouds.9 mph78%30.07 "HgN/A
11:00 PM75 °FPassing clouds.9 mph78%30.07 "HgN/A
10:30 PM75 °FPassing clouds.8 mph78%30.07 "HgN/A
10:00 PM75 °FPassing clouds.8 mph78%30.07 "HgN/A
9:30 PM75 °FPassing clouds.8 mph78%30.07 "HgN/A
9:00 PM75 °FPartly cloudy.8 mph78%30.07 "HgN/A
8:30 PM75 °FPassing clouds.8 mph74%30.07 "HgN/A
8:00 PM75 °FPassing clouds.6 mph74%30.04 "HgN/A
7:30 PM75 °FPassing clouds.7 mph74%30.04 "HgN/A
7:00 PM77 °FWarm.7 mph69%30.04 "HgN/A
6:30 PM77 °FPassing clouds.7 mph69%30.04 "HgN/A
6:00 PM77 °FPassing clouds.5 mph69%30.01 "HgN/A
5:30 PM79 °FPassing clouds.5 mph65%30.01 "HgN/A
5:00 PM79 °FPassing clouds.5 mph65%30.01 "HgN/A
4:30 PM81 °FScattered clouds.6 mph66%30.01 "HgN/A
4:00 PM81 °FScattered clouds.7 mph62%30.01 "HgN/A
3:30 PM81 °FPassing clouds.8 mph66%30.01 "HgN/A
3:00 PM82 °FPassing clouds.9 mph62%30.01 "HgN/A
2:30 PM82 °FPassing clouds.9 mph62%30.01 "HgN/A
2:00 PM82 °FPassing clouds.10 mph62%30.04 "HgN/A
1:30 PM82 °FPassing clouds.10 mph62%30.04 "HgN/A
1:00 PM82 °FScattered clouds.10 mph62%30.04 "HgN/A
12:30 PM82 °FScattered clouds.10 mph62%30.07 "HgN/A
12:00 PM81 °FScattered clouds.10 mph66%30.07 "HgN/A
11:30 AM82 °FScattered clouds.10 mph62%30.07 "HgN/A
11:00 AM82 °FScattered clouds.13 mph62%30.09 "HgN/A
10:00 AM81 °FPassing clouds.12 mph66%30.09 "HgN/A
9:30 AM81 °FScattered clouds.13 mph66%30.09 "HgN/A
9:00 AM81 °FScattered clouds.12 mph66%30.09 "HgN/A
8:30 AM79 °FPartly sunny.14 mph70%30.07 "HgN/A
8:05 AM79 °FBroken clouds.13 mph70%30.07 "HgN/A
8:00 AM79 °FScattered clouds.12 mph70%30.07 "HgN/A
Weather by CustomWeather, © 2014

See weather overviewHow to use our weather pages